Weather History for PHMK - September, 2013

Change the Weather History Date:

Tuesday, September 17, 2013

  Actual Average Record
Temperature  
Mean Temperature 76 °F -  
Max Temperature 82 °F 86 °F 91 °F (1979)
Min Temperature 71 °F 70 °F 65 °F (1980)
Cooling Degree Days 12    
Growing Degree Days 26 (Base 50)    
Moisture  
Dew Point 71 °F    
Average Humidity 89    
Maximum Humidity 100    
Minimum Humidity 67    
Precipitation  
Precipitation 0.05 in - - ()
Sea Level Pressure  
Sea Level Pressure 30.02 in    
Wind  
Wind Speed 11 mph (NE)    
Max Wind Speed 22 mph    
Max Gust Speed 34 mph    
Visibility 9 miles    
Events Rain    
Averages and records for this station are not official NWS values.
T = Trace of Precipitation, MM = Missing Value Source: NWS Daily Summary

Daily Weather History Graph

Daily Weather History Graph

Search for Another Location

Airport or City:

Trip Planner

Search our weather history database for the weather conditions in past years. The results will help you decide how hot, cold, wet, or windy it might be!

Date:

Astronomy

Sep. 17, 2013 Rise Set
Actual Time 6:16 AM HST 6:28 PM HST
Civil Twilight 5:53 AM HST 6:51 PM HST
Nautical Twilight 5:28 AM HST 7:16 PM HST
Astronomical Twilight 5:01 AM HST 7:42 PM HST
Moon 5:18 PM HST (9/17) 4:32 AM HST (9/17)
Length of Visible Light 12h 57m
Length of Day
12h 12m
Waxing Gibbous, 97% of the Moon is Illuminated
Sep 17
Waxing Gibbous
Sep 19
Full
Sep 26
Last Quarter
Oct 4
New
Oct 11
First Quarter

Hourly Weather History & Observations

Time (HST) Temp. Heat Index Dew Point Humidity Pressure Visibility Wind Dir Wind Speed Gust Speed Precip Events Conditions
12:54 AM 75.0 °F - 71.1 °F 87% 30.05 in 10.0 mi NNE 8.1 mph - N/A   Partly Cloudy
1:54 AM 73.9 °F - 71.1 °F 91% 30.04 in 10.0 mi NE 12.7 mph 23.0 mph 0.00 in Rain Light Rain
2:54 AM 73.0 °F - 71.1 °F 93% 30.01 in 10.0 mi NE 4.6 mph - 0.00 in   Mostly Cloudy
3:39 AM 73.4 °F - 71.6 °F 94% 30.00 in 10.0 mi NE 6.9 mph 17.3 mph N/A   Mostly Cloudy
3:54 AM 73.9 °F - 71.1 °F 91% 30.00 in 10.0 mi NE 5.8 mph - N/A   Mostly Cloudy
4:16 AM 73.4 °F - 71.6 °F 94% 30.00 in 10.0 mi NE 11.5 mph 19.6 mph N/A   Scattered Clouds
4:54 AM 73.9 °F - 72.0 °F 93% 30.00 in 10.0 mi NE 11.5 mph 20.7 mph N/A   Scattered Clouds
5:54 AM 73.0 °F - 71.1 °F 93% 30.01 in 10.0 mi NE 11.5 mph 18.4 mph N/A   Scattered Clouds
6:35 AM 71.6 °F - 71.6 °F 100% 30.01 in 6.0 mi NNE 12.7 mph 21.9 mph 0.00 in Rain Light Rain
6:54 AM 71.1 °F - 71.1 °F 100% 30.02 in 4.0 mi NNE 13.8 mph 26.5 mph 0.00 in Rain Light Rain
7:04 AM 71.6 °F - 71.6 °F 100% 30.02 in 7.0 mi NNE 9.2 mph 17.3 mph N/A Rain Light Rain
7:13 AM 71.6 °F - 71.6 °F 100% 30.02 in 7.0 mi NNE 10.4 mph 21.9 mph N/A Rain Light Rain
7:54 AM 73.4 °F - 73.0 °F 99% 30.03 in 7.0 mi NNE 8.1 mph 21.9 mph 0.01 in   Mostly Cloudy
8:09 AM 73.4 °F - 73.4 °F 100% 30.02 in 10.0 mi NE 15.0 mph 27.6 mph 0.00 in   Overcast
8:54 AM 73.4 °F - 73.0 °F 99% 30.05 in 10.0 mi NE 11.5 mph - 0.00 in   Mostly Cloudy
9:54 AM 78.1 °F - 71.1 °F 79% 30.06 in 10.0 mi NE 12.7 mph 25.3 mph N/A   Overcast
10:54 AM 75.9 °F - 69.1 °F 79% 30.06 in 10.0 mi NE 21.9 mph 34.5 mph 0.00 in   Overcast
11:54 AM 79.0 °F - 69.1 °F 72% 30.04 in 10.0 mi NE 10.4 mph 17.3 mph N/A   Scattered Clouds
12:54 PM 79.0 °F - 72.0 °F 79% 30.02 in 10.0 mi NE 18.4 mph 23.0 mph N/A   Scattered Clouds
1:54 PM 82.0 °F 85.9 °F 70.0 °F 67% 30.01 in 10.0 mi NE 16.1 mph 31.1 mph N/A   Partly Cloudy
2:54 PM 82.0 °F 86.3 °F 71.1 °F 69% 29.99 in 10.0 mi NE 13.8 mph 24.2 mph N/A   Scattered Clouds
3:54 PM 82.0 °F 86.3 °F 71.1 °F 69% 29.99 in 10.0 mi NE 13.8 mph 26.5 mph N/A   Clear
4:54 PM 80.1 °F 83.6 °F 71.1 °F 74% 29.99 in 10.0 mi NE 18.4 mph 27.6 mph N/A   Partly Cloudy
5:54 PM 77.0 °F - 71.1 °F 82% 29.99 in 10.0 mi NE 18.4 mph 23.0 mph 0.00 in   Clear
6:54 PM 75.9 °F - 71.1 °F 85% 30.00 in 10.0 mi NE 17.3 mph 26.5 mph N/A   Clear
7:54 PM 75.0 °F - 71.1 °F 87% 30.02 in 10.0 mi NE 8.1 mph 23.0 mph N/A   Clear
8:54 PM 73.0 °F - 71.1 °F 93% 30.04 in 10.0 mi NE 10.4 mph 18.4 mph 0.00 in Rain Light Rain
9:54 PM 73.0 °F - 73.0 °F 100% 30.04 in 5.0 mi Variable 5.8 mph - 0.02 in Rain Rain
10:54 PM 73.0 °F - 71.1 °F 93% 30.03 in 10.0 mi NE 10.4 mph - 0.02 in   Mostly Cloudy
11:54 PM 73.0 °F - 72.0 °F 96% 30.02 in 10.0 mi NE 4.6 mph - N/A   Partly Cloudy